DK3WN SatBlog

…it's all about one thing

PW-Sat


22:15 UTC

 


M-Cubed


21:35 UTC  1Frame  Decoded


COMPASS-1


2012-03-31 21:18 UTC FF0700051800002100009700FF NH7WN

Solar Cell Voltage      5.00 V
Solar Panel 6 Cur (+Z)      43.92 mA
Solar Panel 2 Cur (+Y)      0.00 mA
Solar Panel 3 Cur (-X)      150.59 mA
Solar Panel 4 Cur (-Y)      31.37 mA
Solar Panel 5 Cur (-Z)      0.00 mA
EPS Reset Counter       0
Power Level             Critical Battery Capacity
Heater Active           Battery Heater ON
Power Safe Counter      0
Emergency Mode Counter  0
Battery Voltage         2.96 V
Battery Current         0.00 mA
Battery Temperature     -1 ーC


FASTRAC


20120331010439,FAST2>BEACON,qAR,9W2CEH-3:F21001660 74123.4523859233472 41-0.2353+0.0000+0.0000 -4235638.46 -1120021.46 -9890622.73-235245283286 021 024 021 025 035
20120331011343,FAST2>BEACON,VK6HGR-1,qAR,VK6LD-5:F21001660 74123.4523859233472 41-0.2353+0.0000+0.0000 -4235638.46 -1120021.46 -9890622.73-235247283286 022 024 020 025 036
20120331040738,FAST2>BEACON,qAR,SR5GK-3:F21001660 74123.4523859233472 41-0.2353+0.0000+0.0000 -4235638.46 -1120021.46 -9890622.73-235223283286 021 028 018 026 037
20120331200137,FAST2>BEACON,qAR,MM1MPB-6:F21001660 74123.4523859233472 41-0.2353+0.0000+0.0000 -4235638.46 -1120021.46 -9890622.73-235217283286 029 026 024 026 037


NO-44


20120331011306,W3ADO-1>BEACON,SGATE,qAR,JA5BLZ-6:T#001,060,131,053,029,214,11111111,0000,1
20120331011406,W3ADO-1>BEACON,SGATE,qAR,JA5BLZ-6:T#002,080,073,069,076,214,11111111,0001,1
20120331011506,W3ADO-1>BEACON,SGATE,qAR,JA5BLZ-6:T#003,083,069,063,130,214,11111111,0010,1
20120331011508,PCSAT-11>BEACON,SGATE,qAS,JA0CAW-6:T#001,092,058,071,094,216,11111111,0000,1
20120331011606,W3ADO-1>BEACON,SGATE,qAR,JA5BLZ-6:T#004,162,162,046,209,214,11111111,0011,1
20120331011706,W3ADO-1>BEACON,SGATE,qAR,JA5BLZ-6:T#005,022,134,050,055,214,11111111,0000,1
20120331011906,W3ADO-1>BEACON,SGATE,qAR,JA5BLZ-6:T#007,084,071,051,129,214,11111111,0010,1
20120331012007,W3ADO-1>BEACON,SGATE,qAR,JA5BLZ-6:T#008,162,162,048,210,214,11111111,0011,1
20120331012106,W3ADO-1>BEACON,SGATE,qAS,JA0CAW-6:T#009,077,088,050,029,214,11111111,0000,1
20120331012206,W3ADO-1>BEACON,SGATE,qAS,JA0CAW-6:T#010,085,074,074,101,214,11111111,0001,1
20120331013102,W3ADO-1>BEACON,SGATE,qAR,KF7OFW:T#001,032,106,052,029,214,11111111,0000,1
20120331080810,W3ADO-1>BEACON,SQ5NWI-6*,qAR,SR5DRA-10:T#005,022,149,058,028,214,11111111,0000,1
20120331144030,W3ADO-1>BEACON,SGATE,qAR,WB4FGF:T#004,162,163,041,210,214,11111111,0011,1
20120331144129,W3ADO-1>BEACON,SGATE,qAR,AE5PL-10:T#005,022,148,061,028,214,11111111,0000,1
20120331144533,PCSAT-11>BEACON,SGATE,qAS,N1EDU-2:T#003,081,071,091,125,216,11111111,0010,1
20120331144623,W3ADO-1>ID,SGATE,qAR,W3PRL-1:W3ADO-1/R XBAUD/G MAIL-1/B
20120331144628,W3ADO-1>BEACON,SGATE,qAR,KC9RGZ:T#010,082,073,072,096,214,11111111,0001,1
20120331144730,W3ADO-1>BEACON,SGATE,qAo,KD8JBF-1:T#011,084,071,050,129,214,11111111,0010,1
20120331144932,W3ADO-1>BEACON,SGATE,qAR,EI7IG:T#013,028,139,068,029,214,11111111,0000,1
20120331162543,PCSAT-11>BEACON,SGATE,qAR,KA7STK-10:T#001,100,058,056,062,216,11111111,0000,1
20120331162744,W3ADO-1>BEACON,SGATE,qAo,KD8JBF-1:T#005,022,126,074,037,214,11111111,0000,1
20120331163344,W3ADO-1>BEACON,SGATE,qAR,VE3JJA:T#011,093,075,054,130,214,11111111,0010,1
20120331180545,W3ADO-1>BEACON,SGATE,qAR,WB7ROB:T#005,028,123,050,028,214,11111111,0000,1
20120331181146,W3ADO-1>BEACON,SGATE,qAR,KF4ZUX:T#011,089,073,051,129,214,11111111,0010,1
20120331181346,W3ADO-1>BEACON,SGATE,qAS,VE4DDW:T#013,032,120,051,029,214,11111111,0000,1
20120331213131,W3ADO-1>BEACON,SGATE,qAR,WA7RVV:T#008,162,162,048,210,214,11111111,0011,1


O/OREOS


12:10 UTC


FASTRAC


20120330003742,FAST2>BEACON,qAR,9W2CEH-3:F21001660 74123.4523859233472 41-0.2353+0.0000+0.0000 -4235638.46 -1120021.46 -9890622.73-235241283286 015 023 017 025 031
20120330065841,FAST2>BEACON,qAR,EA6XQ:F21001660 74123.4523859233472 41-0.2353+0.0000+0.0000 -4235638.46 -1120021.46 -9890622.73-235225283286 018 023 020 025 031
20120330135241,FAST2>BEACON,qAR,LW4DEM-6:F21001660 74123.4523859233472 41-0.2353+0.0000+0.0000 -4235638.46 -1120021.46 -9890622.73-235227283286 021 019 023 022 031
20120330135541,FAST2>BEACON,qAR,LW4DEM-6:F21001660 74123.4523859233472 41-0.2353+0.0000+0.0000 -4235638.46 -1120021.46 -9890622.73-235250283286 021 019 023 022 031
20120330211339,FAST2>BEACON,CT2HKY,HKYNET,qAS,CT2HKY,PORTUGAL:F21001660 74123.4523859233472 41-0.2353+0.0000+0.0000 -4235638.46 -1120021.46 -9890622.73-235200283286 024 025 024 026 030


NO-44


20120330000239,W3ADO-1>BEACON,SGATE,qAR,JA5BLZ-6:T#002,081,072,068,073,214,11111111,0001,1
20120330000337,PCSAT-11>BEACON,SGATE,qAS,JA0CAW-6:T#001,086,057,054,077,216,11111111,0000,1
20120330000339,W3ADO-1>BEACON,SGATE,qAR,JA5BLZ-6:T#003,082,068,050,114,214,11111111,0010,1
20120330000439,W3ADO-1>BEACON,SGATE,qAR,JA5BLZ-6:T#004,162,162,050,210,214,11111111,0011,1
20120330000539,W3ADO-1>BEACON,SGATE,qAR,JA5BLZ-6:T#005,022,144,050,028,214,11111111,0000,1
20120330000839,W3ADO-1>BEACON,SGATE,qAS,JA0CAW-6:T#008,163,163,051,210,214,11111111,0011,1
20120330014424,PCSAT-11>BEACON,SGATE,qAS,JA0CAW-6:T#001,086,057,062,085,216,11111111,0000,1
20120330014824,W3ADO-1>BEACON,SGATE,qAR,JA5BLZ-6:T#008,162,162,047,211,214,11111111,0011,1
20120330014925,W3ADO-1>BEACON,SGATE,qAS,JA0CAW-6:T#009,022,126,050,054,214,11111111,0000,1
20120330015024,PCSAT-11>BEACON,SGATE,qAS,JA0CAW-6:T#003,085,072,091,124,216,11111111,0010,1
20120330083350,W3ADO-1>BEACON,SGATE,qAR,UR3QLZ-6:T#008,160,160,052,209,214,11111111,0011,1
20120330083450,W3ADO-1>BEACON,SGATE,qAR,UR3QLZ-6:T#009,061,120,057,029,214,11111111,0000,1
20120330083549,W3ADO-1>BEACON,SGATE,qAR,UR3QLZ-6:T#010,088,074,075,103,214,11111111,0001,1
20120330115115,W3ADO-1>BEACON,SGATE,qAR,EI7IG:T#005,035,135,062,028,214,11111111,0000,1
20120330133935,W3ADO-1>BEACON,SGATE,qAR,EI7IG:T#016,163,163,051,210,214,11111111,0011,1
20120330151251,W3ADO-1>BEACON,SGATE,qAR,AL0I:T#003,082,068,050,131,214,11111111,0010,1
20120330151353,W3ADO-1>BEACON,SGATE,qAR,N4ILM-4:T#004,162,162,048,209,214,11111111,0011,1
20120330151451,W3ADO-1>BEACON,SGATE,qAR,KB8ZGL-10:T#005,022,141,050,032,214,11111111,0000,1
20120330151651,W3ADO-1>BEACON,SGATE,W0BLD,qAS,W0BLD:T#007,082,070,055,129,214,11111111,0010,1
20120330151751,W3ADO-1>BEACON,SGATE,qAR,VE3TSA:T#008,163,163,048,209,214,11111111,0011,1
20120330165653,W3ADO-1>BEACON,SGATE,qAR,KC9RGZ:T#008,161,161,055,210,214,11111111,0011,1
20120330183927,W3ADO-1>BEACON,SGATE,qAR,VA7NIC-2:T#011,088,071,050,131,214,11111111,0010,1
20120330184128,W3ADO-1>BEACON,SGATE,qAR,KC9RGZ:T#013,022,128,074,029,214,11111111,0000,1
20120330202339,W3ADO-1>BEACON,SGATE,qAR,LAMONT:T#014,087,074,076,104,214,11111111,0001,1
20120330202358,W3ADO-1>ID,SGATE,qAR,LAMONT:W3ADO-1/R XBAUD/G MAIL-1/B
20120330220327,W3ADO-1>BEACON,SGATE,qAR,KF7OFW:T#010,088,074,075,106,214,11111111,0001,1
20120330233743,W3ADO-1>BEACON,SGATE,qAS,JA0CAW-6:T#005,022,145,050,041,214,11111111,0000,1
20120330234043,W3ADO-1>BEACON,SGATE,qAS,JA0CAW-6:T#008,161,161,047,209,214,11111111,0011,1
20120330234743,W3ADO-1>BEACON,SGATE,qAR,KL7AIR-10:T#015,090,077,052,131,214,11111111,0010,1
20120330234744,PCSAT-11>BEACON,SGATE,qAR,KF7OFW:T#005,093,058,056,068,216,11111110,0000,1


COMPASS-1


2012-03-29 22:37 UTC FF073600150000200000A00004 ZL2BX
---------------------------------------------------
Solar Cell Voltage      5.00 V
Solar Panel 6 Cur (+Z)      43.92 mA
Solar Panel 2 Cur (+Y)      0.00 mA
Solar Panel 3 Cur (-X)      131.76 mA
Solar Panel 4 Cur (-Y)      0.00 mA
Solar Panel 5 Cur (-Z)      338.82 mA
EPS Reset Counter       0 
Power Level             Critical Battery Capacity 
Heater Active           Battery Heater OFF 
Power Safe Counter      0 
Emergency Mode Counter  0 
Battery Voltage         3.14 V
Battery Current         0.00 mA
Battery Temperature     4 °C

PW-Sat


22:32 UTC